Flag for Sao Tome and Principe Weather past 2 weeks in São Tomé, Sao Tome and Principe

Now
84 °F

Partly sunny.


Feels Like: 94 °F
Forecast: 77 / 85 °F
Wind: 5 mph from Southeast

Location: S. Tome

Current Time: Jan 25, 2015 at 10:42:33 AM

Latest Report: Jan 25, 2015 at 9:00 AM


Visibility: N/A

Pressure: 29.89 "Hg

Humidity: 79%

Dew point: 77 °F

Location of São ToméLocation

Historic Weather in São Tomé — Graph

°F

São Tomé temperature yesterday

Maximum temperature yesterday: 90 °F (at 1:00 PM)
Minimum temperature yesterday: 75 °F (at 11:00 PM)
Average temperature yesterday: 83 °F

Past Weeks' High & Low Weather Summary

 TemperatureHumidityPressure
High90 °F (Jan 19, 1:00 PM)94% (Jan 11, 6:00 AM)30.01 "Hg (Jan 11, 6:00 AM)
Low70 °F (Jan 13, 4:00 AM)62% (Jan 12, 1:00 PM)29.77 "Hg (Jan 24, 4:00 PM)
Average81 °F82%29.89 "Hg
* Reported Jan 10 10:00 AM — Jan 25 9:00 AM, São Tomé, Weather by CustomWeather, © 2014

Note: Actual official high and low records may vary slightly from our data, if they occured in-between our weather recording intervals... More about our weather records

Advertising

São Tomé weather history for previous 24 hours

 ConditionsComfort  
Time TempWeatherWind HumidityBarometerVisibility
9:00 AM
Jan 25
84 °FPartly sunny.5 mph79%29.89 "HgN/A
8:00 AM84 °FPartly sunny.5 mph79%29.89 "HgN/A
7:00 AM75 °FPartly sunny.2 mph94%29.86 "HgN/A
6:00 AM73 °FThunderstorms. Scattered clouds.2 mph94%29.86 "HgN/A
5:00 AM75 °FPassing clouds.2 mph89%29.86 "HgN/A
11:00 PM
Jan 24
75 °FPassing clouds.2 mph94%29.86 "HgN/A
10:00 PM79 °FPartly cloudy.2 mph89%29.86 "HgN/A
9:00 PM79 °FPassing clouds.3 mph89%29.89 "HgN/A
8:00 PM81 °FPassing clouds.5 mph84%29.86 "HgN/A
6:00 PM84 °FPassing clouds.5 mph79%29.80 "HgN/A
5:00 PM84 °FScattered clouds.5 mph79%29.77 "HgN/A
4:00 PM86 °FPartly sunny.3 mph75%29.77 "HgN/A
3:00 PM88 °FPartly sunny.2 mph70%29.80 "HgN/A
2:00 PM88 °FScattered clouds.9 mph70%29.83 "HgN/A
1:00 PM90 °FBroken clouds.12 mph67%29.80 "HgN/A
11:00 AM88 °FWarm.14 mph70%29.86 "HgN/A
10:00 AM86 °FWarm.6 mph75%29.89 "HgN/A
Weather by CustomWeather, © 2014

See weather overviewHow to use our weather pages